• Em Portugal
  • Lista de países
  • Para 7 dias
  • Temperatura da água
  • Mapas de satélite
  • Mapa do tempo
  • Widgets de tempo
  • user-avatar
    Iniciar Sessão

    Previsão horária em Konya

    Hoje, 22 Outubro, Segunda-feira

    Tempo Temperatura Precipitação Vento Pressão Humidade
    00:00 +13°C° 0 mm 1 m/s 672 mmHg 72%
    01:00 +13°C° 0 mm 1 m/s 672 mmHg 74%
    02:00 +13°C° 0 mm 1 m/s 672 mmHg 75%
    03:00 +12°C° 0 mm 1 m/s 672 mmHg 76%
    04:00 +12°C° 0 mm 1 m/s 672 mmHg 77%
    05:00 +12°C° 0 mm 1 m/s 672 mmHg 78%
    06:00 +13°C° 0 mm 1 m/s 673 mmHg 75%
    07:00 +13°C° 0 mm 1 m/s 673 mmHg 71%
    08:00 +14°C° 0 mm 1 m/s 673 mmHg 67%
    09:00 +15°C° 0 mm 1 m/s 674 mmHg 63%
    10:00 +16°C° 0 mm 1 m/s 674 mmHg 59%
    11:00 +17°C° 0 mm 2 m/s 674 mmHg 55%
    12:00 +18°C° 0 mm 2 m/s 674 mmHg 52%
    13:00 +19°C° 0 mm 2 m/s 674 mmHg 49%
    14:00 +19°C° 0 mm 2 m/s 674 mmHg 46%
    15:00 +19°C° 0 mm 2 m/s 673 mmHg 48%
    16:00 +19°C° 0 mm 2 m/s 673 mmHg 49%
    17:00 +19°C° 0 mm 1 m/s 673 mmHg 51%
    18:00 +18°C° 0 mm 1 m/s 673 mmHg 54%
    19:00 +18°C° 0 mm 1 m/s 673 mmHg 58%
    20:00 +16°C° 0 mm 1 m/s 673 mmHg 61%
    21:00 +15°C° 0 mm 1 m/s 673 mmHg 63%
    22:00 +15°C° 0 mm 1 m/s 673 mmHg 66%
    23:00 +14°C° 0 mm 1 m/s 673 mmHg 68%

    Amanhã, 23 Outubro, Terça-feira

    Tempo Temperatura Precipitação Vento Pressão Humidade
    00:00 +14°C° 0 mm 1 m/s 672 mmHg 70%
    01:00 +12°C° 0 mm 0 m/s 672 mmHg 72%
    02:00 +12°C° 0 mm 0 m/s 672 mmHg 74%
    03:00 +11°C° 0 mm 0 m/s 672 mmHg 75%
    04:00 +11°C° 0 mm 0 m/s 672 mmHg 76%
    05:00 +11°C° 0 mm 0 m/s 671 mmHg 77%
    06:00 +12°C° 0 mm 0 m/s 672 mmHg 72%
    07:00 +13°C° 0 mm 0 m/s 672 mmHg 66%
    08:00 +15°C° 0 mm 0 m/s 673 mmHg 61%
    09:00 +16°C° 0 mm 0 m/s 673 mmHg 56%
    10:00 +19°C° 0 mm 1 m/s 673 mmHg 50%
    11:00 +20°C° 0 mm 1 m/s 673 mmHg 45%
    12:00 +21°C° 0 mm 1 m/s 673 mmHg 42%
    13:00 +21°C° 0 mm 1 m/s 673 mmHg 39%
    14:00 +22°C° 0 mm 1 m/s 672 mmHg 36%
    15:00 +22°C° 0 mm 1 m/s 672 mmHg 38%
    16:00 +21°C° 0 mm 1 m/s 671 mmHg 40%
    17:00 +20°C° 0 mm 1 m/s 671 mmHg 42%
    18:00 +20°C° 0 mm 1 m/s 671 mmHg 44%
    19:00 +19°C° 0 mm 1 m/s 671 mmHg 46%
    20:00 +18°C° 0 mm 1 m/s 671 mmHg 49%
    21:00 +18°C° 0 mm 1 m/s 671 mmHg 50%
    22:00 +16°C° 0 mm 1 m/s 671 mmHg 52%
    23:00 +16°C° 0 mm 1 m/s 670 mmHg 54%

    Depois de amanhã, 24 Outubro, Quarta-feira

    Tempo Temperatura Precipitação Vento Pressão Humidade
    00:00 +15°C° 0 mm 1 m/s 670 mmHg 55%
    01:00 +15°C° 0 mm 1 m/s 670 mmHg 56%
    02:00 +14°C° 0 mm 1 m/s 670 mmHg 57%
    03:00 +14°C° 0 mm 1 m/s 669 mmHg 58%
    04:00 +14°C° 0 mm 1 m/s 669 mmHg 59%
    05:00 +14°C° 0 mm 1 m/s 668 mmHg 60%
    06:00 +14°C° 0 mm 2 m/s 669 mmHg 57%
    07:00 +15°C° 0 mm 2 m/s 669 mmHg 53%
    08:00 +16°C° 0 mm 2 m/s 669 mmHg 50%
    09:00 +18°C° 0 mm 3 m/s 669 mmHg 46%
    10:00 +19°C° 0 mm 3 m/s 669 mmHg 41%
    11:00 +20°C° 0 mm 4 m/s 669 mmHg 37%
    12:00 +21°C° 0 mm 5 m/s 669 mmHg 36%
    13:00 +22°C° 0 mm 5 m/s 668 mmHg 34%
    14:00 +22°C° 0 mm 6 m/s 668 mmHg 33%
    15:00 +21°C° 0 mm 6 m/s 667 mmHg 36%
    16:00 +20°C° 0 mm 6 m/s 667 mmHg 39%
    17:00 +19°C° 0 mm 5 m/s 666 mmHg 42%
    18:00 +19°C° 0 mm 5 m/s 666 mmHg 46%
    19:00 +18°C° 0 mm 4 m/s 666 mmHg 50%
    20:00 +17°C° 0 mm 3 m/s 666 mmHg 53%
    21:00 +16°C° 0.6 mm 3 m/s 666 mmHg 58%
    22:00 +14°C° 0.6 mm 4 m/s 665 mmHg 63%
    23:00 +14°C° 0.6 mm 4 m/s 665 mmHg 68%

    25 Outubro, Quinta-feira

    Tempo Temperatura Precipitação Vento Pressão Humidade
    00:00 +14°C° 0.9 mm 3 m/s 665 mmHg 70%
    01:00 +13°C° 0.9 mm 3 m/s 664 mmHg 72%
    02:00 +13°C° 0.9 mm 3 m/s 664 mmHg 73%
    03:00 +13°C° 0.5 mm 3 m/s 664 mmHg 75%
    04:00 +12°C° 0.5 mm 4 m/s 663 mmHg 76%
    05:00 +12°C° 0.5 mm 4 m/s 663 mmHg 77%
    06:00 +11°C° 1.6 mm 4 m/s 663 mmHg 79%
    07:00 +10°C° 1.6 mm 4 m/s 663 mmHg 80%
    08:00 +10°C° 1.6 mm 4 m/s 664 mmHg 81%
    09:00 +8°C° 1.2 mm 5 m/s 664 mmHg 80%
    10:00 +7°C° 1.2 mm 5 m/s 664 mmHg 80%
    11:00 +7°C° 1.2 mm 5 m/s 664 mmHg 79%
    12:00 +7°C° 0.7 mm 5 m/s 664 mmHg 76%
    13:00 +7°C° 0.7 mm 5 m/s 664 mmHg 74%
    14:00 +6°C° 0.7 mm 5 m/s 664 mmHg 71%
    15:00 +5°C° 0.6 mm 6 m/s 664 mmHg 70%
    16:00 +4°C° 0.6 mm 6 m/s 665 mmHg 68%
    17:00 +4°C° 0.6 mm 7 m/s 665 mmHg 67%
    18:00 +4°C° 0.6 mm 7 m/s 666 mmHg 66%
    19:00 +3°C° 0.6 mm 7 m/s 666 mmHg 66%
    20:00 +3°C° 0.6 mm 7 m/s 667 mmHg 66%
    21:00 +3°C° 0.2 mm 7 m/s 667 mmHg 67%
    22:00 +3°C° 0.2 mm 7 m/s 668 mmHg 68%
    23:00 +2°C° 0.2 mm 6 m/s 669 mmHg 69%

    26 Outubro, Sexta-feira

    Tempo Temperatura Precipitação Vento Pressão Humidade
    00:00 +2°C° 0.1 mm 6 m/s 669 mmHg 70%
    01:00 +1°C° 0.1 mm 6 m/s 669 mmHg 71%
    02:00 +1°C° 0.1 mm 6 m/s 669 mmHg 72%
    03:00 0°C° 0 mm 5 m/s 670 mmHg 74%
    04:00 0°C° 0 mm 5 m/s 670 mmHg 76%
    05:00 0°C° 0 mm 4 m/s 671 mmHg 78%
    06:00 0°C° 0 mm 4 m/s 672 mmHg 77%
    07:00 0°C° 0 mm 4 m/s 672 mmHg 75%
    08:00 +1°C° 0 mm 4 m/s 673 mmHg 73%
    09:00 +3°C° 0 mm 3 m/s 673 mmHg 67%
    10:00 +4°C° 0 mm 3 m/s 674 mmHg 60%
    11:00 +5°C° 0 mm 3 m/s 674 mmHg 54%
    12:00 +5°C° 0 mm 3 m/s 674 mmHg 50%
    13:00 +7°C° 0 mm 2 m/s 674 mmHg 46%
    14:00 +8°C° 0 mm 2 m/s 674 mmHg 42%
    15:00 +8°C° 0 mm 1 m/s 674 mmHg 45%
    16:00 +8°C° 0 mm 1 m/s 674 mmHg 48%
    17:00 +8°C° 0 mm 1 m/s 675 mmHg 51%
    18:00 +7°C° 0 mm 1 m/s 675 mmHg 52%
    19:00 +6°C° 0 mm 0 m/s 675 mmHg 53%
    20:00 +6°C° 0 mm 0 m/s 676 mmHg 55%
    21:00 +6°C° 0 mm 1 m/s 676 mmHg 55%
    22:00 +6°C° 0 mm 1 m/s 676 mmHg 54%
    23:00 +6°C° 0 mm 1 m/s 676 mmHg 54%

    27 Outubro, Sábado

    Tempo Temperatura Precipitação Vento Pressão Humidade
    00:00 +6°C° 0 mm 1 m/s 676 mmHg 55%
    01:00 +5°C° 0 mm 1 m/s 676 mmHg 55%
    02:00 +5°C° 0 mm 1 m/s 676 mmHg 56%
    03:00 +5°C° 0 mm 1 m/s 676 mmHg 55%
    04:00 +5°C° 0 mm 1 m/s 676 mmHg 55%
    05:00 +5°C° 0 mm 1 m/s 676 mmHg 55%
    06:00 +6°C° 0 mm 1 m/s 676 mmHg 50%
    07:00 +7°C° 0 mm 1 m/s 677 mmHg 46%
    08:00 +8°C° 0 mm 1 m/s 677 mmHg 42%
    09:00 +10°C° 0 mm 1 m/s 677 mmHg 37%
    10:00 +11°C° 0 mm 1 m/s 677 mmHg 33%
    11:00 +13°C° 0 mm 1 m/s 677 mmHg 29%
    12:00 +14°C° 0 mm 1 m/s 677 mmHg 27%
    13:00 +15°C° 0 mm 1 m/s 677 mmHg 25%
    14:00 +16°C° 0 mm 1 m/s 677 mmHg 23%
    15:00 +15°C° 0 mm 1 m/s 677 mmHg 27%
    16:00 +13°C° 0 mm 1 m/s 676 mmHg 31%
    17:00 +12°C° 0 mm 1 m/s 676 mmHg 35%
    18:00 +12°C° 0 mm 1 m/s 676 mmHg 37%
    19:00 +11°C° 0 mm 1 m/s 676 mmHg 39%
    20:00 +10°C° 0 mm 1 m/s 676 mmHg 40%
    21:00 +10°C° 0 mm 1 m/s 676 mmHg 40%
    22:00 +10°C° 0 mm 1 m/s 676 mmHg 40%
    23:00 +9°C° 0 mm 1 m/s 676 mmHg 40%

    28 Outubro, Domingo

    Tempo Temperatura Precipitação Vento Pressão Humidade
    00:00 +9°C° 0 mm 1 m/s 676 mmHg 41%
    01:00 +9°C° 0 mm 1 m/s 675 mmHg 41%
    02:00 +7°C° 0 mm 0 m/s 675 mmHg 42%
    03:00 +7°C° 0 mm 0 m/s 675 mmHg 41%
    04:00 +8°C° 0 mm 1 m/s 675 mmHg 41%
    05:00 +8°C° 0 mm 1 m/s 675 mmHg 40%
    06:00 +9°C° 0 mm 1 m/s 676 mmHg 37%
    07:00 +11°C° 0 mm 1 m/s 676 mmHg 34%
    08:00 +13°C° 0 mm 1 m/s 677 mmHg 31%
    09:00 +14°C° 0 mm 1 m/s 677 mmHg 28%
    10:00 +15°C° 0 mm 1 m/s 678 mmHg 24%
    11:00 +18°C° 0 mm 1 m/s 678 mmHg 20%
    12:00 +19°C° 0 mm 1 m/s 678 mmHg 19%
    13:00 +19°C° 0 mm 1 m/s 677 mmHg 17%
    14:00 +20°C° 0 mm 1 m/s 677 mmHg 16%
    15:00 +19°C° 0 mm 1 m/s 677 mmHg 20%
    16:00 +16°C° 0 mm 1 m/s 676 mmHg 23%
    17:00 +15°C° 0 mm 1 m/s 676 mmHg 27%
    18:00 +14°C° 0 mm 1 m/s 676 mmHg 28%
    19:00 +13°C° 0 mm 1 m/s 676 mmHg 29%
    20:00 +13°C° 0 mm 1 m/s 676 mmHg 31%
    21:00 +12°C° 0 mm 1 m/s 676 mmHg 31%
    22:00 +12°C° 0 mm 1 m/s 676 mmHg 31%
    23:00 +11°C° 0 mm 1 m/s 676 mmHg 32%
    Mostrar mais